FW8882 Weather Reports


Display with metric or nautical units.
time (UTC)temp
F
wind
direction
speed
MPH
gust
MPH
rain 1hr
in
rain 24hr
in
rain mn
in
humidity
%
barometer
mb
20260831214258 84 273 0.0 1.0 0.00 0.00 0.00 78 1015.7
20260831213753 84 331 0.0 0.0 0.00 0.00 0.00 79 1015.8
20260831213250 84 314 1.0 1.0 0.00 0.00 0.00 78 1015.6
20260831212749 84 329 0.0 2.0 0.00 0.00 0.00 78 1015.6
20260831212247 84 325 1.0 1.0 0.00 0.00 0.00 78 1015.6
20260831211745 84 313 0.0 1.0 0.00 0.00 0.00 79 1015.5
20260831211240 85 340 0.0 0.0 0.00 0.00 0.00 80 1015.9
20260831210735 85 353 0.0 1.0 0.00 0.00 0.00 79 1015.6
20260831210231 86 341 0.0 1.0 0.00 0.00 0.00 79 1015.8
20260831205729 86 335 0.0 1.0 0.00 0.00 0.00 78 1015.7
20260831205221 86 342 0.0 1.0 0.00 0.00 0.00 78 1016.1
20260831204720 85 350 0.0 0.0 0.00 0.00 0.00 80 1016.0
20260831204220 85 338 0.0 1.0 0.00 0.00 0.00 80 1015.8
20260831203719 85 330 0.0 1.0 0.00 0.00 0.00 79 1016.0
20260831203219 85 217 2.0 3.0 0.00 0.00 0.00 80 1016.1
20260831202717 85 320 0.0 1.0 0.00 0.00 0.00 79 1016.5
20260831202213 85 323 0.0 0.0 0.00 0.00 0.00 80 1016.3
20260831201707 84 322 0.0 0.0 0.00 0.00 0.00 82 1016.5
20260831201206 85 321 0.0 0.0 0.00 0.00 0.00 82 1016.4
20260831200702 84 321 0.0 1.0 0.00 0.00 0.00 83 1016.3
20260831200202 85 328 0.0 1.0 0.00 0.00 0.00 80 1016.2
20260831195657 85 333 0.0 1.0 0.00 0.00 0.00 82 1016.4
20260831195153 85 343 0.0 0.0 0.00 0.00 0.00 80 1016.4
20260831194648 85 335 0.0 1.0 0.00 0.00 0.00 81 1016.5
20260831194143 85 337 0.0 0.0 0.00 0.00 0.00 82 1016.5
20260831193637 85 337 0.0 1.0 0.00 0.00 0.00 80 1016.9
20260831193133 85 282 0.0 1.0 0.00 0.00 0.00 80 1016.8
20260831192628 86 324 0.0 1.0 0.00 0.00 0.00 79 1016.9
20260831192124 86 332 0.0 0.0 0.00 0.00 0.00 77 1016.7
20260831191620 85 347 0.0 0.0 0.00 0.00 0.00 78 1016.9
20260831191115 85 330 0.0 1.0 0.00 0.00 0.00 77 1016.9
20260831190610 86 347 0.0 0.0 0.00 0.00 0.00 78 1017.1
20260831190108 86 335 1.0 1.0 0.00 0.00 0.00 77 1017.0
20260831185559 86 334 0.0 0.0 0.00 0.00 0.00 80 1016.9
20260831185054 85 296 1.0 1.0 0.00 0.00 0.00 79 1017.0
20260831184553 85 321 1.0 1.0 0.00 0.00 0.00 77 1017.1
20260831184049 85 312 1.0 2.0 0.00 0.00 0.00 76 1017.1
20260831183548 85 333 2.0 3.0 0.00 0.00 0.00 75 1017.3
20260831183043 86 336 1.0 2.0 0.00 0.00 0.00 79 1017.4
20260831182542 86 339 0.0 2.0 0.00 0.00 0.00 76 1017.6
20260831182038 86 329 0.0 1.0 0.00 0.00 0.00 79 1017.3
20260831181533 86 314 0.0 1.0 0.00 0.00 0.00 77 1017.4
20260831181032 86 224 2.0 2.0 0.00 0.00 0.00 73 1017.6
20260831180527 87 303 2.0 3.0 0.00 0.00 0.00 73 1017.4
20260831180023 86 328 0.0 2.0 0.00 0.00 0.00 77 1017.7
20260831175518 86 215 3.0 7.0 0.00 0.00 0.00 73 1017.6
20260831175015 87 339 1.0 2.0 0.00 0.00 0.00 74 1017.4
20260831174514 87 308 1.0 2.0 0.00 0.00 0.00 74 1017.7
20260831174009 87 336 0.0 2.0 0.00 0.00 0.00 75 1017.4
20260831173507 86 323 1.0 2.0 0.00 0.00 0.00 73 1017.7
20260831173003 86 322 1.0 3.0 0.00 0.00 0.00 73 1017.8
20260831172458 86 301 1.0 1.0 0.00 0.00 0.00 74 1017.6
20260831171953 86 306 2.0 3.0 0.00 0.00 0.00 72 1017.8
20260831171449 86 333 3.0 5.0 0.00 0.00 0.00 74 1017.7
20260831170946 85 240 1.0 2.0 0.00 0.00 0.00 76 1017.9
20260831170442 86 342 1.0 3.0 0.00 0.00 0.00 73 1017.8
20260831165938 86 311 3.0 3.0 0.00 0.00 0.00 74 1017.7
20260831165434 86 324 2.0 3.0 0.00 0.00 0.00 72 1017.9
20260831164931 86 334 1.0 2.0 0.00 0.00 0.00 72 1018.0
20260831164426 85 316 2.0 3.0 0.00 0.00 0.00 75 1018.0
20260831163921 85 323 1.0 3.0 0.00 0.00 0.00 73 1018.1
20260831163417 86 327 1.0 5.0 0.00 0.00 0.00 72 1018.1
20260831162915 87 320 1.0 2.0 0.00 0.00 0.00 73 1018.1
20260831162411 86 302 0.0 2.0 0.00 0.00 0.00 72 1017.9
20260831161909 86 310 2.0 5.0 0.00 0.00 0.00 72 1018.1
20260831161406 85 336 0.0 1.0 0.00 0.00 0.00 73 1018.2
20260831160901 85 221 1.0 2.0 0.00 0.00 0.00 73 1018.1
20260831160356 85 328 1.0 2.0 0.00 0.00 0.00 74 1018.0
20260831155851 85 324 1.0 2.0 0.00 0.00 0.00 75 1018.2
20260831155350 84 333 1.0 2.0 0.00 0.00 0.00 76 1018.1
20260831154846 84 329 0.0 1.0 0.00 0.00 0.00 77 1018.1
20260831154343 84 329 0.0 2.0 0.00 0.00 0.00 79 1018.1
20260831153841 84 289 1.0 5.0 0.00 0.00 0.00 78 1018.0
20260831153337 83 325 2.0 2.0 0.00 0.00 0.00 79 1018.0
20260831152833 83 347 1.0 1.0 0.00 0.00 0.00 81 1018.0
20260831152329 82 318 3.0 3.0 0.00 0.00 0.00 80 1018.1
20260831151823 82 335 0.0 2.0 0.00 0.00 0.00 80 1018.0
20260831151322 82 328 0.0 2.0 0.00 0.00 0.00 82 1017.8
20260831150818 81 338 0.0 1.0 0.00 0.00 0.00 82 1017.8
20260831150313 81 335 0.0 1.0 0.00 0.00 0.00 83 1018.1
20260831145812 81 336 0.0 1.0 0.00 0.00 0.00 84 1017.8
20260831145309 81 320 1.0 1.0 0.00 0.00 0.00 84 1017.8
20260831144804 81 329 0.0 1.0 0.00 0.00 0.00 84 1017.8
20260831144300 80 331 0.0 0.0 0.00 0.00 0.00 85 1017.8
20260831143800 80 327 0.0 1.0 0.00 0.00 0.00 84 1017.7
20260831143255 80 336 0.0 1.0 0.00 0.00 0.00 83 1017.6
20260831142750 80 337 0.0 1.0 0.00 0.00 0.00 83 1017.7
20260831142246 80 321 0.0 1.0 0.00 0.00 0.00 84 1017.6
20260831141745 80 331 0.0 1.0 0.00 0.00 0.00 83 1017.4
20260831141245 79 337 0.0 2.0 0.00 0.00 0.00 85 1017.4
20260831140740 78 328 0.0 1.0 0.00 0.00 0.00 84 1017.3
20260831140235 78 337 0.0 1.0 0.00 0.00 0.00 86 1017.1
20260831135732 77 338 0.0 0.0 0.00 0.00 0.00 87 1017.3
20260831135228 77 334 0.0 1.0 0.00 0.00 0.00 87 1017.1
20260831134724 77 314 1.0 1.0 0.00 0.00 0.00 87 1017.3
20260831134220 76 349 0.0 2.0 0.00 0.00 0.00 87 1017.6
20260831133719 76 339 0.0 1.0 0.00 0.00 0.00 88 1017.4
20260831133213 76 312 1.0 1.0 0.00 0.00 0.00 88 1017.6
20260831132709 77 320 1.0 1.0 0.00 0.00 0.00 87 1017.3
20260831132208 76 299 1.0 1.0 0.00 0.00 0.00 87 1017.7
20260831131703 76 305 1.0 2.0 0.00 0.00 0.00 86 1017.6
20260831131200 75 306 1.0 1.0 0.00 0.00 0.00 90 1017.7
20260831130654 74 328 1.0 1.0 0.00 0.00 0.00 90 1017.6
20260831130150 73 326 0.0 1.0 0.00 0.00 0.00 91 1017.6
20260831125648 73 317 0.0 1.0 0.00 0.00 0.00 91 1017.7
20260831125144 73 284 1.0 1.0 0.00 0.00 0.00 91 1017.4
20260831124639 73 323 0.0 1.0 0.00 0.00 0.00 92 1017.4
20260831124135 73 322 0.0 1.0 0.00 0.00 0.00 93 1017.6
20260831123630 72 334 0.0 0.0 0.00 0.00 0.00 93 1017.3
20260831123129 72 335 0.0 0.0 0.00 0.00 0.00 93 1017.6
20260831122628 72 335 0.0 0.0 0.00 0.00 0.00 94 1017.7
20260831122125 72 335 0.0 0.0 0.00 0.00 0.00 94 1017.6
20260831121624 71 335 0.0 0.0 0.00 0.00 0.00 94 1017.6
20260831121120 71 332 0.0 0.0 0.00 0.00 0.00 94 1017.3
20260831120615 71 335 0.0 0.0 0.00 0.00 0.00 94 1017.6
20260831120110 71 336 0.0 0.0 0.00 0.00 0.00 94 1017.3
20260831115606 71 335 0.0 0.0 0.00 0.00 0.00 94 1017.2
20260831115102 71 336 0.0 0.0 0.00 0.00 0.00 94 1017.1
20260831114600 71 336 0.0 0.0 0.00 0.00 0.00 94 1017.2
20260831114055 71 336 0.0 0.0 0.00 0.00 0.00 94 1017.2
20260831113554 71 336 0.0 0.0 0.00 0.00 0.00 94 1017.1
20260831113050 71 334 0.0 0.0 0.00 0.00 0.00 94 1017.0
20260831112549 71 334 0.0 1.0 0.00 0.00 0.00 94 1017.0
20260831112044 71 335 0.0 1.0 0.00 0.00 0.00 94 1017.1
20260831111541 71 334 0.0 0.0 0.00 0.00 0.00 93 1017.0
20260831111036 71 285 0.0 1.0 0.00 0.00 0.00 93 1016.8
20260831110531 71 291 1.0 1.0 0.00 0.00 0.00 93 1016.8
20260831110026 71 335 0.0 0.0 0.00 0.00 0.00 93 1016.7
20260831105525 71 300 1.0 1.0 0.00 0.00 0.00 93 1016.8
20260831105020 71 314 1.0 1.0 0.00 0.00 0.00 93 1016.7
20260831104517 71 316 0.0 0.0 0.00 0.00 0.00 94 1016.9
20260831104012 71 293 0.0 2.0 0.00 0.00 0.00 94 1016.9
20260831103507 71 314 0.0 1.0 0.00 0.00 0.00 94 1016.8
20260831103003 71 315 0.0 1.0 0.00 0.00 0.00 94 1017.0
20260831102457 71 326 0.0 0.0 0.00 0.00 0.00 94 1016.9
20260831101952 71 325 0.0 0.0 0.00 0.00 0.00 94 1016.9
20260831101447 71 332 0.0 0.0 0.00 0.00 0.00 94 1016.8
20260831100943 71 291 0.0 1.0 0.00 0.00 0.00 94 1016.7
20260831100439 71 315 1.0 1.0 0.00 0.00 0.00 94 1016.7
20260831095934 71 328 0.0 1.0 0.00 0.00 0.00 94 1016.6
20260831095433 71 325 0.0 0.0 0.00 0.00 0.00 94 1016.6
20260831094928 71 316 0.0 1.0 0.00 0.00 0.00 94 1016.7
20260831094424 71 315 0.0 1.0 0.00 0.00 0.00 94 1016.8
20260831093920 71 323 0.0 1.0 0.00 0.00 0.00 94 1016.7
20260831093414 71 317 0.0 1.0 0.00 0.00 0.00 94 1016.7
20260831092912 71 324 0.0 0.0 0.00 0.00 0.00 94 1016.8
20260831092407 71 323 0.0 0.0 0.00 0.00 0.00 94 1016.9
20260831091902 71 325 0.0 1.0 0.00 0.00 0.00 94 1016.9
20260831091357 71 309 1.0 1.0 0.00 0.00 0.00 94 1016.8
20260831090852 71 331 0.0 0.0 0.00 0.00 0.00 94 1016.9
20260831090348 71 331 0.0 0.0 0.00 0.00 0.00 94 1016.8
20260831085845 71 333 0.0 1.0 0.00 0.00 0.00 94 1016.9
20260831085338 71 334 0.0 0.0 0.00 0.00 0.00 94 1016.8
20260831084833 71 333 0.0 0.0 0.00 0.00 0.00 94 1016.9
20260831084329 71 316 0.0 0.0 0.00 0.00 0.00 94 1016.7
20260831083826 71 329 0.0 0.0 0.00 0.00 0.00 94 1016.8
20260831083321 71 334 0.0 0.0 0.00 0.00 0.00 94 1016.5
20260831082819 71 335 0.0 0.0 0.00 0.00 0.00 94 1016.5
20260831082314 71 334 0.0 0.0 0.00 0.00 0.00 93 1016.5
20260831081810 71 325 0.0 0.0 0.00 0.00 0.00 93 1016.5
20260831081305 71 333 0.0 0.0 0.00 0.00 0.00 93 1016.6
20260831080801 71 334 0.0 0.0 0.00 0.00 0.00 93 1016.4
20260831080255 71 331 0.0 0.0 0.00 0.00 0.00 93 1016.5
20260831075751 71 329 0.0 0.0 0.00 0.00 0.00 93 1016.4
20260831075247 71 336 0.0 0.0 0.00 0.00 0.00 93 1016.3
20260831074746 71 324 0.0 0.0 0.00 0.00 0.00 93 1016.5
20260831074245 71 315 0.0 0.0 0.00 0.00 0.00 93 1016.3
20260831073742 71 337 0.0 0.0 0.00 0.00 0.00 93 1016.6
20260831073240 71 334 0.0 0.0 0.00 0.00 0.00 93 1016.7
20260831072736 71 334 0.0 0.0 0.00 0.00 0.00 93 1016.6
20260831072232 71 317 0.0 1.0 0.00 0.00 0.00 93 1016.5
20260831071732 71 332 0.0 0.0 0.00 0.00 0.00 93 1016.7
20260831071226 71 332 0.0 0.0 0.00 0.00 0.00 93 1016.5
20260831070721 71 332 0.0 0.0 0.00 0.00 0.00 93 1016.7
20260831070215 71 317 0.0 1.0 0.00 0.00 0.00 93 1016.4
20260831065714 71 325 0.0 1.0 0.00 0.00 0.00 93 1016.7
20260831065212 71 325 0.0 1.0 0.00 0.00 0.00 93 1016.8
20260831064708 71 323 0.0 0.0 0.00 0.00 0.00 93 1016.8
20260831064202 71 333 0.0 0.0 0.00 0.00 0.00 93 1017.0
20260831063659 71 334 0.0 0.0 0.00 0.00 0.00 93 1017.0
20260831063149 71 334 0.0 0.0 0.00 0.00 0.00 93 1017.0
20260831062648 71 334 0.0 0.0 0.00 0.00 0.00 93 1017.1
20260831062148 71 334 0.0 0.0 0.00 0.00 0.00 93 1017.0
20260831061646 71 334 0.0 0.0 0.00 0.00 0.00 92 1017.1
20260831061142 71 334 0.0 0.0 0.00 0.00 0.00 92 1017.2
20260831060638 71 334 0.0 0.0 0.00 0.00 0.00 92 1017.0
20260831060138 71 334 0.0 0.0 0.00 0.00 0.00 91 1017.1
20260831055637 71 334 0.0 0.0 0.00 0.00 0.00 91 1017.1
20260831055132 71 334 0.0 0.0 0.00 0.00 0.00 91 1017.2
20260831054632 72 334 0.0 0.0 0.00 0.00 0.00 90 1016.9
20260831054131 72 331 0.0 0.0 0.00 0.00 0.00 90 1017.1
20260831053626 72 317 0.0 0.0 0.00 0.00 0.00 90 1017.3
20260831053120 72 331 0.0 0.0 0.00 0.00 0.00 90 1017.2
20260831052619 72 315 0.0 0.0 0.00 0.00 0.00 90 1017.2
20260831052118 72 302 0.0 1.0 0.00 0.00 0.00 91 1017.3
20260831051616 71 316 0.0 0.0 0.00 0.00 0.00 91 1017.4
20260831051115 71 334 0.0 0.0 0.00 0.00 0.00 91 1017.4
20260831050610 71 316 0.0 1.0 0.00 0.00 0.00 92 1017.4
20260831050108 71 330 0.0 0.0 0.00 0.00 0.00 93 1017.2
20260831045603 71 316 0.0 1.0 0.00 0.00 0.00 93 1017.4
20260831045058 71 335 0.0 0.0 0.00 0.00 0.00 93 1017.2
20260831044553 71 334 0.0 0.0 0.00 0.00 0.00 93 1017.4
20260831044048 71 335 0.0 0.0 0.00 0.00 0.00 93 1017.2
20260831043543 71 334 0.0 0.0 0.00 0.00 0.00 93 1017.1
20260831043038 71 334 0.0 0.0 0.00 0.00 0.00 93 1017.2
20260831042538 71 329 0.0 0.0 0.00 0.00 0.00 93 1017.4
20260831042033 71 333 0.0 0.0 0.00 0.00 0.00 93 1017.4
20260831041528 71 330 0.0 0.0 0.00 0.00 0.00 93 1017.4
20260831041021 71 333 0.0 0.0 0.00 0.00 0.00 93 1017.3
20260831040516 71 332 0.0 0.0 0.00 0.00 0.00 93 1017.7
20260831040016 71 333 0.0 0.0 0.00 0.00 0.00 93 1017.2
20260831035513 71 335 0.0 0.0 0.00 0.00 0.00 93 1017.4
20260831035009 71 335 0.0 0.0 0.00 0.00 0.00 93 1017.6
20260831034503 71 335 0.0 0.0 0.00 0.00 0.00 93 1017.4
20260831033959 71 335 0.0 0.0 0.00 0.00 0.00 94 1017.4
20260831033454 71 335 0.0 0.0 0.00 0.00 0.00 93 1017.6
20260831032950 71 335 0.0 0.0 0.00 0.00 0.00 93 1017.6
20260831032449 71 335 0.0 0.0 0.00 0.00 0.00 93 1017.6
20260831031945 71 335 0.0 0.0 0.00 0.00 0.00 93 1017.3
20260831031444 71 335 0.0 0.0 0.00 0.00 0.00 93 1017.4
20260831030943 71 334 0.0 0.0 0.00 0.00 0.00 93 1017.7
20260831030443 71 334 0.0 0.0 0.00 0.00 0.00 93 1017.6
20260831025941 71 329 0.0 0.0 0.00 0.00 0.00 93 1017.7
20260831025440 71 335 0.0 0.0 0.00 0.00 0.00 94 1017.6
20260831024936 71 335 0.0 0.0 0.00 0.00 0.00 93 1017.6
20260831024436 71 335 0.0 0.0 0.00 0.00 0.00 93 1017.3
20260831023931 71 333 0.0 0.0 0.00 0.00 0.00 93 1017.7
20260831023429 71 333 0.0 0.0 0.00 0.00 0.00 93 1017.4
20260831022925 71 333 0.0 0.0 0.00 0.00 0.00 93 1017.3
20260831022423 71 333 0.0 0.0 0.00 0.00 0.00 92 1017.4
20260831021918 72 333 0.0 0.0 0.00 0.00 0.00 92 1017.3
20260831021418 72 333 0.0 0.0 0.00 0.00 0.00 92 1017.4
20260831020914 72 333 0.0 0.0 0.00 0.00 0.00 92 1017.7
20260831020413 73 331 0.0 0.0 0.00 0.00 0.00 91 1017.8
20260831015908 73 335 0.0 0.0 0.00 0.00 0.00 91 1017.7
20260831015404 73 336 0.0 0.0 0.00 0.00 0.00 90 1017.7
20260831014904 73 335 0.0 0.0 0.00 0.00 0.00 90 1017.9
20260831014359 73 335 0.0 0.0 0.00 0.00 0.00 90 1017.8
20260831013855 73 334 0.0 0.0 0.00 0.00 0.00 90 1017.9
20260831013350 73 334 0.0 0.0 0.00 0.00 0.00 90 1017.9
20260831012844 73 335 0.0 0.0 0.00 0.00 0.00 90 1017.8
20260831012340 73 336 0.0 0.0 0.00 0.00 0.00 90 1017.8
20260831011839 73 337 0.0 0.0 0.00 0.00 0.00 90 1017.7
20260831011334 73 336 0.0 0.0 0.00 0.00 0.00 90 1017.9
20260831010831 73 337 0.0 0.0 0.00 0.00 0.00 89 1017.8
20260831010330 74 337 0.0 0.0 0.00 0.00 0.00 89 1017.7
20260831005826 74 336 0.0 0.0 0.00 0.00 0.00 89 1017.4
20260831005322 74 336 0.0 0.0 0.00 0.00 0.00 89 1017.8
20260831004816 74 335 0.0 0.0 0.00 0.00 0.00 88 1017.6
20260831004312 75 336 0.0 0.0 0.00 0.00 0.00 88 1017.6
20260831003807 75 336 0.0 0.0 0.00 0.00 0.00 88 1017.6
20260831003303 75 336 0.0 0.0 0.00 0.00 0.00 87 1017.3
20260831002757 76 336 0.0 0.0 0.00 0.00 0.00 87 1017.3
20260831002256 76 335 0.0 0.0 0.00 0.00 0.00 86 1017.4
20260831001753 77 335 0.0 0.0 0.00 0.00 0.00 85 1017.1
20260831001248 77 335 0.0 0.0 0.00 0.00 0.00 84 1017.4
20260831000745 77 334 0.0 0.0 0.00 0.00 0.00 86 1017.3
20260831000244 77 335 0.0 0.0 0.00 0.00 0.00 86 1017.2
20260830235743 77 335 0.0 0.0 0.00 0.00 0.00 85 1016.9
20260830235238 78 335 0.0 0.0 0.00 0.00 0.00 85 1016.9
20260830234733 78 336 0.0 0.0 0.00 0.00 0.00 85 1017.0
20260830234229 79 336 0.0 0.0 0.00 0.00 0.00 85 1017.0
20260830233725 79 336 0.0 0.0 0.00 0.00 0.00 82 1017.0
20260830233220 80 336 0.0 0.0 0.00 0.00 0.00 84 1016.8
20260830232716 80 335 0.0 0.0 0.00 0.00 0.00 84 1016.7
20260830232211 80 335 0.0 0.0 0.00 0.00 0.00 83 1016.7
20260830231708 81 335 0.0 0.0 0.00 0.00 0.00 81 1016.5
20260830231207 81 336 0.0 0.0 0.00 0.00 0.00 80 1016.5
20260830230702 82 334 0.0 0.0 0.00 0.00 0.00 78 1016.6
20260830230157 82 334 0.0 0.0 0.00 0.00 0.00 76 1016.3
20260830225651 82 332 0.0 0.0 0.00 0.00 0.00 75 1016.4
20260830225146 83 330 0.0 1.0 0.00 0.00 0.00 75 1016.1
20260830224645 83 296 1.0 1.0 0.00 0.00 0.00 73 1016.2
20260830224141 83 308 1.0 1.0 0.00 0.00 0.00 73 1016.2
20260830223638 83 315 0.0 2.0 0.00 0.00 0.00 71 1016.2
20260830223137 83 314 0.0 1.0 0.00 0.00 0.00 72 1016.2
20260830222632 84 316 0.0 2.0 0.00 0.00 0.00 73 1016.4
20260830222128 84 215 2.0 3.0 0.00 0.00 0.00 71 1016.4
20260830221624 84 329 0.0 1.0 0.00 0.00 0.00 73 1016.4
20260830221120 83 272 0.0 2.0 0.00 0.00 0.00 73 1016.2
20260830220615 83 302 2.0 2.0 0.00 0.00 0.00 74 1016.3
20260830220114 83 322 0.0 1.0 0.00 0.00 0.00 74 1016.0
20260830215613 82 259 1.0 2.0 0.00 0.00 0.00 74 1016.2
20260830215107 82 325 0.0 0.0 0.00 0.00 0.00 76 1016.2
20260830214602 82 330 0.0 1.0 0.00 0.00 0.00 76 1016.2